Weather in Salsk

Russia / Rostov Oblast     46°28′31″N   41°32′29″E
temp.,
°C
wind,
m/s
gust,
m/s
humid.,
%
clouds,
%
prec.,
mm/h
press.,
hPa
HPBL,
m
27 july, tue
tue2700:00+26ene343368 0.0 101661
03:00+25e4103994 0.0 1016318
06:00+23e3948100 0.0 1017230
09:00+28ese5836100 0.0 1017958
12:00+29sse6634100 0.0 10181999
15:00+25sse7747100 0.0 1019895
18:00+24sse5750100 0.1 1019756
21:00+20sse2560100 0.1 1019131
28 july, wed
wed2800:00+19sw246589 0.0 1020124
03:00+17sw22695 0.0 102029
06:00+18wsw23634 0.0 101992
09:00+24wsw22430 0.0 1019742
12:00+29nne13340 0.0 10171647
15:00+31ene34260 0.0 10162745
18:00+31ese14270 0.0 10152706
21:00+25ssw33360 0.0 101523
29 july, thu
thu2900:00+22sw36471 0.0 101581
03:00+20wsw33601 0.0 101544
06:00+20wnw23561 0.0 101569
09:00+28ene12345 0.0 1015506
12:00+32ese33235 0.0 10132807
15:00+34ese22214 0.0 10123218
18:00+33ese112223 0.0 10113216
21:00+27se22290 0.0 101213
30 july, fri
fri3000:00+24sw34380 0.0 101256
03:00+23w34450 0.0 101252
06:00+23ssw12490 0.0 101221
09:00+30s22310 0.0 1012572
12:00+35sse22210 0.0 10112948
15:00+36e11190 0.0 10103314
18:00+35ese32200 0.0 10092894
21:00+28ese33261 0.0 100919
31 july, sat
sat3100:00+25ssw34316 0.0 101055
03:00+23s11365 0.0 101011
06:00+24ese22372 0.0 101017
09:00+32ese22260 0.0 1010563
12:00+35e34190 0.0 10092836
15:00+36e55170 0.0 10082914
18:00+35e45190 0.0 10091739
21:00+28e33270 0.0 100918